Tracking 19795 objects as of 20-Jul-2019
HD Live streaming from Space Station
objects crossing your sky now

AALTO 1

Track AALTO 1 now!
10-day predictions
AALTO 1 is classified as:


NORAD ID: 42775
Int'l Code: 2017-036L
Perigee: 498.1 km
Apogee: 519.6 km
Inclination: 97.3 °
Period: 94.7 minutes
Semi major axis: 6879 km
RCS: Unknown
Launch date: June 23, 2017
Source: (FIN)
Launch site: SRIHARIKOTA (SRI)

Uplink (MHz):
Downlink (MHz): 437.220/2402.000
Beacon (MHz): 437.220
Mode: 9600bps FSK CW
Call sign: OH2A1S
Status: Active

aabbcc
Your satellite tracking list
Your tracking list is empty




NASA's NSSDC Master Catalog

Two Line Element Set (TLE):
1 42775U 17036L   19200.83910329 +.00000432 +00000-0 +22275-4 0  9990
2 42775 097.3473 256.8581 0015668 109.1883 251.1050 15.21364875114946
Source of the keplerian elements: AMSAT